Погода в Дымнице

Россия / Костромская область     57°48′18″N   42°42′24″E
темп.,
°C
ветер,
м/с
пор.,
м/с
влажн.,
%
обл.,
%
осадки,
мм/ч
давл.,
гПа
погр.,
м
15 мая, сб
сб1500:00+14в2597100 4.1 1015134
03:00+14в3797100 5.1 1015186
06:00+15в4996100 2.2 1013274
09:00+17всв3697100 4.2 1012182
12:00+23юв246925 0.8 1011627
15:00+22вюв2378100 4.6 100997
18:00+19ююз413775 2.3 1010996
21:00+16ю312875 2.3 1011481
16 мая, вс
вс1600:00+14ююв399819 0.0 1011267
03:00+13ю399825 0.0 1011251
06:00+15ю310900 0.0 1011381
09:00+19ююз59635 0.0 10121034
12:00+22юз69535 0.0 10121571
15:00+23юз59493 0.0 10122231
18:00+20зюз5116197 0.1 10121545
21:00+14ююз29869 0.1 1013239
17 мая, пн
пн1700:00+13юз210943 0.0 1014230
03:00+12юз25971 0.0 1015113
06:00+15зюз24882 0.0 1016168
09:00+19юз2367100 0.0 1017781
12:00+23юз235214 0.0 10171362
15:00+24ююз2346100 0.0 10161620
18:00+22ююв246215 0.0 1016262
21:00+17в227615 0.0 101623
18 мая, вт
вт1800:00+15вюв368518 0.1 1015111
03:00+13вюв24964 0.1 101563
06:00+16юв27865 0.0 1015169
09:00+23юв47530 0.0 1015457
12:00+27ююв58373 0.0 10141160
15:00+28ююв58350 0.0 10132222
18:00+24ююв310485 0.0 1012472
21:00+17вюв3147395 0.0 1012293
19 мая, ср
ср1900:00+17юв313705 0.0 1011352
03:00+15юв313835 0.0 1011265
06:00+18юв4166361 0.0 1010550
09:00+23ююв61546100 0.0 10101004
12:00+27ююв612395 0.0 10091268
15:00+28ююв61541100 0.0 10072474
18:00+26юв8164812 0.0 10052251
21:00+15юв71779100 4.6 1007606